This is the latest recevied weather packets stored in our database for station/object KD7CTY. If no packets are shown the sender has not sent any weather packets the latest 10 day(s).
| Time | Temp. | Humidity | Pressure | Rain* | Wind** | Luminosity | Snow |
|---|---|---|---|---|---|---|---|
| 1777668695 | 23.33° C | 54% | 1014.5 hPa | 0 mm | - | 407 W/m² | - |
| 1777668391 | 23.33° C | 51% | 1014.6 hPa | 0 mm | - | 400 W/m² | - |
| 1777668087 | 22.78° C | 52% | 1014.6 hPa | 0 mm | - | 727 W/m² | - |
| 1777667784 | 22.78° C | 54% | 1014.6 hPa | 0 mm | - | 705 W/m² | - |
| 1777667482 | 22.78° C | 57% | 1014.6 hPa | 0 mm | - | 649 W/m² | - |
| 1777667179 | 21.67° C | 54% | 1014.7 hPa | 0 mm | - | 706 W/m² | - |
| 1777666875 | 22.22° C | 54% | 1014.8 hPa | 0 mm | - | 601 W/m² | - |
| 1777666573 | 21.67° C | 53% | 1014.7 hPa | 0 mm | - | 536 W/m² | - |
| 1777666269 | 22.22° C | 53% | 1015 hPa | 0 mm | - | 442 W/m² | - |
| 1777665966 | 21.67° C | 55% | 1014.8 hPa | 0 mm | - | 700 W/m² | - |
| 1777665663 | 22.22° C | 59% | 1014.8 hPa | 0 mm | - | 866 W/m² | - |
| 1777665361 | 21.67° C | 58% | 1015 hPa | 0 mm | - | 796 W/m² | - |
| 1777665056 | 21.67° C | 57% | 1015.2 hPa | 0 mm | - | 761 W/m² | - |
| 1777664752 | 21.67° C | 58% | 1015 hPa | 0 mm | - | 792 W/m² | - |
| 1777664448 | 21.11° C | 53% | 1015.2 hPa | 0 mm | - | 664 W/m² | - |
| 1777664145 | 21.11° C | 55% | 1015.3 hPa | 0 mm | - | 845 W/m² | - |
| 1777663844 | 21.11° C | 56% | 1015.3 hPa | 0 mm | - | 866 W/m² | - |
| 1777663540 | 20.56° C | 57% | 1015.3 hPa | 0 mm | - | 766 W/m² | - |
| 1777663238 | 20.56° C | 56% | 1015.3 hPa | 0 mm | - | 329 W/m² | - |
| 1777662935 | 21.67° C | 60% | 1015.5 hPa | 0 mm | - | 627 W/m² | - |
| 1777662632 | 20° C | 57% | 1015.4 hPa | 0 mm | - | 776 W/m² | - |
| 1777662327 | 20° C | 62% | 1015.4 hPa | 0 mm | - | 697 W/m² | - |
| 1777662024 | 20° C | 61% | 1015.6 hPa | 0 mm | - | 701 W/m² | - |
| 1777661720 | 20° C | 56% | 1015.4 hPa | 0 mm | - | 746 W/m² | - |
| 1777661415 | 19.44° C | 63% | 1015.6 hPa | 0 mm | - | 791 W/m² | - |
* Rain latest hour (hover to see other rain measurements)
** Current wind speed in m/s (hover to see current wind gust speed)